TimeMDT,TemperatureF,Dew PointF,Humidity,Sea Level PressureIn,VisibilityMPH,Wind Direction,Wind SpeedMPH,Gust SpeedMPH,PrecipitationIn,Events,Conditions,WindDirDegrees,DateUTC
12:15 AM,55.4,42.8,63,30.10,10.0,Calm,Calm,-,N/A,,Clear,0,2013-07-11 06:15:00
12:35 AM,55.4,41.0,58,30.10,10.0,ESE,5.8,-,N/A,,Clear,110,2013-07-11 06:35:00
12:55 AM,55.4,42.8,63,30.10,10.0,ESE,4.6,-,N/A,,Clear,110,2013-07-11 06:55:00
1:15 AM,60.8,37.4,42,30.10,10.0,SE,3.5,-,N/A,,Clear,140,2013-07-11 07:15:00
1:35 AM,57.2,41.0,55,30.10,10.0,Calm,Calm,-,N/A,,Clear,0,2013-07-11 07:35:00
1:55 AM,55.4,41.0,58,30.10,10.0,South,4.6,-,N/A,,Clear,190,2013-07-11 07:55:00
2:15 AM,57.2,41.0,55,30.09,10.0,Calm,Calm,-,N/A,,Clear,0,2013-07-11 08:15:00
2:35 AM,59.0,41.0,51,30.09,10.0,Calm,Calm,-,N/A,,Clear,0,2013-07-11 08:35:00
2:55 AM,57.2,41.0,55,30.08,10.0,Calm,Calm,-,N/A,,Clear,0,2013-07-11 08:55:00
3:15 AM,55.4,41.0,58,30.08,10.0,Calm,Calm,-,N/A,,Clear,0,2013-07-11 09:15:00
3:35 AM,57.2,41.0,55,30.08,10.0,Calm,Calm,-,N/A,,Clear,0,2013-07-11 09:35:00
3:55 AM,51.8,42.8,71,30.08,10.0,Calm,Calm,-,N/A,,Clear,0,2013-07-11 09:55:00
4:15 AM,51.8,42.8,71,30.08,10.0,ESE,8.1,-,N/A,,Clear,110,2013-07-11 10:15:00
4:35 AM,53.6,41.0,62,30.08,10.0,Calm,Calm,-,N/A,,Clear,0,2013-07-11 10:35:00
4:55 AM,53.6,42.8,67,30.08,10.0,Calm,Calm,-,N/A,,Clear,0,2013-07-11 10:55:00
5:15 AM,55.4,42.8,63,30.08,10.0,Calm,Calm,-,N/A,,Clear,0,2013-07-11 11:15:00
5:35 AM,55.4,42.8,63,30.09,10.0,Calm,Calm,-,N/A,,Scattered Clouds,0,2013-07-11 11:35:00
5:55 AM,57.2,42.8,59,30.09,10.0,Calm,Calm,-,N/A,,Scattered Clouds,0,2013-07-11 11:55:00
6:15 AM,55.4,44.6,67,30.08,10.0,ESE,3.5,-,N/A,,Clear,120,2013-07-11 12:15:00
6:35 AM,55.4,44.6,67,30.09,10.0,Calm,Calm,-,N/A,,Clear,0,2013-07-11 12:35:00
6:55 AM,55.4,44.6,67,30.09,10.0,NNE,3.5,-,N/A,,Scattered Clouds,20,2013-07-11 12:55:00
7:15 AM,55.4,44.6,67,30.09,10.0,ESE,6.9,-,N/A,,Scattered Clouds,110,2013-07-11 13:15:00
7:35 AM,55.4,46.4,72,30.09,10.0,ESE,3.5,-,N/A,,Clear,120,2013-07-11 13:35:00
7:55 AM,60.8,44.6,55,30.10,10.0,Calm,Calm,-,N/A,,Clear,0,2013-07-11 13:55:00
8:15 AM,62.6,48.2,59,30.10,10.0,NNW,5.8,-,N/A,,Clear,330,2013-07-11 14:15:00
8:35 AM,60.8,46.4,59,30.11,10.0,Calm,Calm,-,N/A,,Clear,0,2013-07-11 14:35:00
8:55 AM,64.4,42.8,45,30.11,10.0,Calm,Calm,-,N/A,,Clear,0,2013-07-11 14:55:00
9:15 AM,68.0,44.6,43,30.11,10.0,Calm,Calm,-,N/A,,Clear,0,2013-07-11 15:15:00
9:35 AM,68.0,46.4,46,30.11,10.0,WNW,3.5,-,N/A,,Clear,300,2013-07-11 15:35:00
9:55 AM,68.0,42.8,40,30.11,10.0,Calm,Calm,-,N/A,,Clear,0,2013-07-11 15:55:00
10:15 AM,68.0,42.8,40,30.11,10.0,Calm,Calm,-,N/A,,Clear,0,2013-07-11 16:15:00
10:35 AM,68.0,46.4,46,30.09,10.0,East,3.5,-,N/A,,Scattered Clouds,80,2013-07-11 16:35:00
10:55 AM,71.6,42.8,35,30.09,10.0,East,9.2,-,N/A,,Scattered Clouds,80,2013-07-11 16:55:00
11:15 AM,75.2,42.8,31,30.08,10.0,SSE,3.5,-,N/A,,Clear,150,2013-07-11 17:15:00
11:35 AM,71.6,44.6,38,30.08,10.0,WNW,6.9,-,N/A,,Clear,300,2013-07-11 17:35:00
11:55 AM,75.2,41.0,29,30.08,10.0,Calm,Calm,-,N/A,,Clear,0,2013-07-11 17:55:00
12:15 PM,77.0,41.0,28,30.07,10.0,Calm,Calm,-,N/A,,Clear,0,2013-07-11 18:15:00
12:35 PM,80.6,41.0,24,30.07,10.0,Calm,Calm,-,N/A,,Clear,0,2013-07-11 18:35:00
12:55 PM,84.2,42.8,23,30.07,10.0,WNW,3.5,-,N/A,,Clear,290,2013-07-11 18:55:00
1:15 PM,80.6,42.8,26,30.06,10.0,Calm,Calm,-,N/A,,Clear,0,2013-07-11 19:15:00
1:35 PM,82.4,41.0,23,30.05,10.0,Calm,Calm,-,N/A,,Clear,0,2013-07-11 19:35:00
1:55 PM,86.0,37.4,18,30.04,10.0,WSW,13.8,-,N/A,,Clear,240,2013-07-11 19:55:00
2:15 PM,86.0,33.8,15,30.04,10.0,WSW,17.3,-,N/A,,Clear,240,2013-07-11 20:15:00
2:35 PM,86.0,33.8,15,30.03,10.0,WSW,16.1,-,N/A,,Clear,250,2013-07-11 20:35:00
2:55 PM,87.8,33.8,15,30.02,10.0,WSW,11.5,18.4,N/A,,Clear,240,2013-07-11 20:55:00
3:15 PM,86.0,37.4,18,30.01,10.0,SW,15.0,21.9,N/A,,Clear,230,2013-07-11 21:15:00
3:35 PM,87.8,35.6,16,30.01,10.0,WSW,15.0,-,N/A,,Clear,240,2013-07-11 21:35:00
3:55 PM,86.0,39.2,19,30.01,10.0,SW,19.6,26.5,N/A,,Clear,230,2013-07-11 21:55:00
4:15 PM,84.2,41.0,22,30.01,10.0,West,15.0,20.7,N/A,,Clear,260,2013-07-11 22:15:00
4:35 PM,82.4,42.8,25,30.01,10.0,West,17.3,-,N/A,,Clear,260,2013-07-11 22:35:00
4:55 PM,82.4,42.8,25,30.01,10.0,West,12.7,-,N/A,,Clear,270,2013-07-11 22:55:00
5:15 PM,80.6,42.8,26,30.03,10.0,WSW,8.1,-,N/A,,Mostly Cloudy,250,2013-07-11 23:15:00
5:35 PM,78.8,42.8,28,30.05,10.0,WSW,18.4,25.3,N/A,,Overcast,250,2013-07-11 23:35:00
5:55 PM,77.0,46.4,34,30.06,10.0,SSW,18.4,29.9,N/A,,Scattered Clouds,210,2013-07-11 23:55:00
6:15 PM,73.4,48.2,41,30.08,10.0,SW,10.4,20.7,N/A,,Mostly Cloudy,220,2013-07-12 00:15:00
6:35 PM,71.6,48.2,43,30.09,10.0,SSW,5.8,-,N/A,,Overcast,200,2013-07-12 00:35:00
6:55 PM,71.6,50.0,46,30.10,10.0,SSW,11.5,-,N/A,,Overcast,210,2013-07-12 00:55:00
7:15 PM,69.8,51.8,53,30.11,10.0,SW,12.7,-,N/A,Rain,Rain,220,2013-07-12 01:15:00
7:35 PM,68.0,51.8,56,30.13,10.0,SW,8.1,-,N/A,,Overcast,220,2013-07-12 01:35:00
7:55 PM,68.0,50.0,52,30.11,10.0,WSW,9.2,-,N/A,,Overcast,250,2013-07-12 01:55:00
8:15 PM,68.0,51.8,56,30.13,10.0,SSW,5.8,-,N/A,,Overcast,210,2013-07-12 02:15:00
8:35 PM,68.0,51.8,56,30.12,10.0,South,9.2,-,N/A,Rain,Rain,170,2013-07-12 02:35:00
8:55 PM,64.4,51.8,64,30.11,10.0,SSE,6.9,-,N/A,,Light Drizzle,160,2013-07-12 02:55:00
9:15 PM,64.4,53.6,68,30.11,10.0,East,4.6,-,N/A,,Mostly Cloudy,90,2013-07-12 03:15:00
9:35 PM,64.4,53.6,68,30.10,10.0,ESE,3.5,-,N/A,,Clear,120,2013-07-12 03:35:00
9:55 PM,64.4,53.6,68,30.10,10.0,Calm,Calm,-,N/A,,Scattered Clouds,0,2013-07-12 03:55:00
10:15 PM,64.4,53.6,68,30.11,10.0,ESE,3.5,-,N/A,,Scattered Clouds,120,2013-07-12 04:15:00
10:35 PM,62.6,53.6,72,30.11,10.0,Calm,Calm,-,N/A,,Mostly Cloudy,0,2013-07-12 04:35:00
10:55 PM,62.6,53.6,72,30.12,10.0,Calm,Calm,-,N/A,,Scattered Clouds,0,2013-07-12 04:55:00
11:15 PM,62.6,53.6,72,30.12,10.0,Calm,Calm,-,N/A,,Clear,0,2013-07-12 05:15:00
11:35 PM,60.8,53.6,77,30.12,10.0,Calm,Calm,-,N/A,,Scattered Clouds,0,2013-07-12 05:35:00
11:55 PM,60.8,53.6,77,30.12,10.0,Calm,Calm,-,N/A,,Scattered Clouds,0,2013-07-12 05:55:00